DLH24C EDDF-EDDC

Flight info

Callsign DLH24C
Flight time 0h 39m
Altitude 23000
Route SULUS4D/07C SULUS L984 KULOK Z715 ABKIS Q240 DRN
Aircraft A319/M-SDE3FGHIRWY/LB1

Departure

Time 2026-05-08 18:08
Airport Frankfurt Main Airport (EDDF)

Arrival

Time 2026-05-08 18:48
Airport Dresden Airport (EDDC)
Time Latitude Longitude Altitude Speed Heading
2026-05-08 17:50 50.03844 8.54694 349 ft 0 kts 160°
2026-05-08 18:02 50.03837 8.54698 349 ft 5 kts 160°
2026-05-08 18:02 50.03751 8.54700 350 ft 13 kts 231°
2026-05-08 18:02 50.03716 8.54563 350 ft 15 kts 251°
2026-05-08 18:03 50.03680 8.54413 343 ft 10 kts 249°
2026-05-08 18:03 50.03667 8.54360 347 ft 0 kts 249°
2026-05-08 18:04 50.03666 8.54357 347 ft 2 kts 249°
2026-05-08 18:04 50.03645 8.54316 347 ft 8 kts 211°
2026-05-08 18:04 50.03587 8.54324 345 ft 8 kts 160°
2026-05-08 18:05 50.03576 8.54331 349 ft 0 kts 160°
2026-05-08 18:05 50.03549 8.54346 344 ft 7 kts 160°
2026-05-08 18:06 50.03492 8.54383 348 ft 8 kts 138°
2026-05-08 18:06 50.03493 8.54423 343 ft 0 kts 66°
2026-05-08 18:07 50.03494 8.54425 343 ft 1 kts 66°
2026-05-08 18:07 50.03534 8.54583 345 ft 50 kts 69°
2026-05-08 18:08 50.03747 8.55487 351 ft 125 kts 70°
2026-05-08 18:08 50.04108 8.56996 622 ft 157 kts 68°
2026-05-08 18:08 50.04491 8.58606 1354 ft 159 kts 68°
2026-05-08 18:08 50.04888 8.60299 1926 ft 178 kts 70°
2026-05-08 18:09 50.05322 8.62231 2399 ft 201 kts 70°
2026-05-08 18:09 50.05798 8.64378 2945 ft 218 kts 70°
2026-05-08 18:09 50.06299 8.66636 3827 ft 222 kts 70°
2026-05-08 18:09 50.06811 8.68937 4737 ft 227 kts 70°
2026-05-08 18:10 50.07166 8.71357 5552 ft 235 kts 88°
2026-05-08 18:10 50.06988 8.73963 6086 ft 259 kts 100°
2026-05-08 18:10 50.06660 8.76828 6778 ft 275 kts 101°
2026-05-08 18:10 50.06309 8.79798 7689 ft 282 kts 101°
2026-05-08 18:11 50.05948 8.82828 8641 ft 288 kts 101°
2026-05-08 18:11 50.05776 8.85962 9581 ft 295 kts 89°
2026-05-08 18:11 50.05828 8.89196 10368 ft 307 kts 89°
2026-05-08 18:11 50.05892 8.92636 10746 ft 331 kts 89°
2026-05-08 18:12 50.05961 8.96323 11250 ft 347 kts 89°
2026-05-08 18:12 50.06006 8.98832 11767 ft 352 kts 89°
2026-05-08 18:12 50.06071 9.02659 12626 ft 356 kts 89°
2026-05-08 18:12 50.06154 9.07793 13771 ft 361 kts 89°
2026-05-08 18:13 50.06212 9.11716 14549 ft 365 kts 89°
2026-05-08 18:13 50.06269 9.15677 15287 ft 369 kts 89°
2026-05-08 18:13 50.06307 9.18334 15765 ft 372 kts 89°
2026-05-08 18:13 50.06383 9.23760 16734 ft 378 kts 89°
2026-05-08 18:14 50.06420 9.26473 17222 ft 380 kts 89°
2026-05-08 18:14 50.06476 9.30609 17967 ft 384 kts 89°
2026-05-08 18:14 50.06532 9.34781 18660 ft 388 kts 90°
2026-05-08 18:14 50.06587 9.39002 19297 ft 392 kts 90°
2026-05-08 18:15 50.06642 9.43271 19931 ft 396 kts 90°
2026-05-08 18:15 50.06694 9.47566 20560 ft 400 kts 90°
2026-05-08 18:15 50.06880 9.51913 21154 ft 405 kts 81°
2026-05-08 18:15 50.07403 9.56236 21551 ft 407 kts 79°
2026-05-08 18:16 50.07947 9.60571 21880 ft 409 kts 79°
2026-05-08 18:16 50.08487 9.64863 22137 ft 410 kts 79°
2026-05-08 18:16 50.09037 9.69235 22407 ft 413 kts 79°
2026-05-08 18:16 50.09574 9.73634 22680 ft 414 kts 80°
2026-05-08 18:17 50.10084 9.78062 22957 ft 416 kts 80°
2026-05-08 18:17 50.10579 9.82516 23096 ft 419 kts 81°
2026-05-08 18:17 50.11067 9.87004 23116 ft 421 kts 81°
2026-05-08 18:17 50.11554 9.91501 23120 ft 421 kts 81°
2026-05-08 18:18 50.12042 9.95996 23123 ft 421 kts 81°
2026-05-08 18:18 50.12527 10.00437 23123 ft 421 kts 81°
2026-05-08 18:18 50.13019 10.04939 23123 ft 421 kts 81°
2026-05-08 18:18 50.13513 10.09436 23122 ft 421 kts 80°
2026-05-08 18:19 50.14009 10.13940 23123 ft 422 kts 80°
2026-05-08 18:19 50.14504 10.18449 23126 ft 422 kts 80°
2026-05-08 18:19 50.14996 10.22962 23125 ft 422 kts 81°
2026-05-08 18:19 50.15483 10.27473 23126 ft 422 kts 81°
2026-05-08 18:20 50.15963 10.31988 23126 ft 422 kts 81°
2026-05-08 18:20 50.16445 10.36510 23128 ft 422 kts 81°
2026-05-08 18:20 50.16924 10.40966 23128 ft 422 kts 81°
2026-05-08 18:20 50.17407 10.45485 23128 ft 422 kts 81°
2026-05-08 18:21 50.17885 10.50002 23138 ft 422 kts 81°
2026-05-08 18:21 50.18362 10.54516 23136 ft 422 kts 81°
2026-05-08 18:21 50.18837 10.59031 23134 ft 422 kts 81°
2026-05-08 18:21 50.19309 10.63555 23128 ft 422 kts 81°
2026-05-08 18:22 50.19775 10.68071 23127 ft 422 kts 81°
2026-05-08 18:22 50.20241 10.72596 23130 ft 422 kts 81°
2026-05-08 18:22 50.20708 10.77120 23129 ft 422 kts 81°
2026-05-08 18:22 50.21177 10.81636 23129 ft 422 kts 81°
2026-05-08 18:23 50.21639 10.86096 23129 ft 422 kts 81°
2026-05-08 18:23 50.22104 10.90627 23126 ft 422 kts 81°
2026-05-08 18:23 50.22561 10.95145 23126 ft 422 kts 81°
2026-05-08 18:23 50.23022 10.99674 23126 ft 422 kts 81°
2026-05-08 18:24 50.23484 11.04201 23127 ft 422 kts 81°
2026-05-08 18:24 50.23940 11.08730 23128 ft 422 kts 81°
2026-05-08 18:24 50.24391 11.13262 23130 ft 422 kts 81°
2026-05-08 18:24 50.24842 11.17801 23138 ft 423 kts 81°
2026-05-08 18:25 50.25290 11.22334 23136 ft 423 kts 81°
2026-05-08 18:25 50.25733 11.26814 23139 ft 423 kts 81°
2026-05-08 18:25 50.26178 11.31354 23141 ft 423 kts 81°
2026-05-08 18:25 50.26621 11.35900 23137 ft 423 kts 81°
2026-05-08 18:26 50.27064 11.40442 23138 ft 423 kts 81°
2026-05-08 18:26 50.27509 11.44984 23138 ft 423 kts 81°
2026-05-08 18:26 50.27955 11.49530 23138 ft 423 kts 81°
2026-05-08 18:26 50.28397 11.54072 23139 ft 423 kts 81°
2026-05-08 18:27 50.28834 11.58615 23135 ft 423 kts 81°
2026-05-08 18:27 50.29122 11.61628 23134 ft 423 kts 81°
2026-05-08 18:27 50.29697 11.67652 23136 ft 423 kts 81°
2026-05-08 18:27 50.30129 11.72206 23133 ft 423 kts 81°
2026-05-08 18:28 50.30556 11.76755 23137 ft 423 kts 81°
2026-05-08 18:28 50.30983 11.81307 23138 ft 423 kts 81°
2026-05-08 18:28 50.31408 11.85870 23139 ft 423 kts 81°
2026-05-08 18:28 50.31829 11.90423 23139 ft 423 kts 82°
2026-05-08 18:29 50.32252 11.94980 23140 ft 423 kts 82°
2026-05-08 18:29 50.32673 11.99531 23141 ft 423 kts 82°
2026-05-08 18:29 50.33089 12.04081 23143 ft 423 kts 82°
2026-05-08 18:29 50.33495 12.08645 23144 ft 423 kts 82°
2026-05-08 18:30 50.33894 12.13216 23145 ft 423 kts 82°
2026-05-08 18:30 50.34368 12.17694 23144 ft 423 kts 76°
2026-05-08 18:30 50.35256 12.22056 22866 ft 417 kts 66°
2026-05-08 18:30 50.36533 12.26099 22330 ft 412 kts 61°
2026-05-08 18:31 50.37868 12.30047 21810 ft 409 kts 60°
2026-05-08 18:31 50.39195 12.33964 21313 ft 405 kts 61°
2026-05-08 18:31 50.40509 12.37853 20814 ft 402 kts 61°
2026-05-08 18:31 50.41808 12.41721 20308 ft 399 kts 61°
2026-05-08 18:32 50.43093 12.45560 19827 ft 396 kts 61°
2026-05-08 18:32 50.44352 12.49326 19330 ft 393 kts 61°
2026-05-08 18:32 50.45617 12.53111 18846 ft 391 kts 61°
2026-05-08 18:32 50.46874 12.56886 18341 ft 388 kts 61°
2026-05-08 18:33 50.48118 12.60626 17818 ft 385 kts 61°
2026-05-08 18:33 50.49346 12.64329 17280 ft 382 kts 61°
2026-05-08 18:33 50.50568 12.68016 16765 ft 378 kts 61°
2026-05-08 18:33 50.51779 12.71670 16261 ft 375 kts 62°
2026-05-08 18:34 50.52963 12.75247 15763 ft 372 kts 62°
2026-05-08 18:34 50.54150 12.78845 15281 ft 369 kts 62°
2026-05-08 18:34 50.55326 12.82417 14799 ft 366 kts 62°
2026-05-08 18:34 50.56491 12.85963 14323 ft 364 kts 62°
2026-05-08 18:35 50.57646 12.89484 13847 ft 361 kts 62°
2026-05-08 18:35 50.58795 12.92988 13307 ft 358 kts 62°
2026-05-08 18:35 50.59932 12.96450 12794 ft 355 kts 62°
2026-05-08 18:35 50.61060 12.99882 12293 ft 352 kts 62°
2026-05-08 18:36 50.62197 13.03268 11783 ft 348 kts 58°
2026-05-08 18:36 50.63602 13.06343 11284 ft 344 kts 47°
2026-05-08 18:36 50.65279 13.08912 10797 ft 339 kts 40°
2026-05-08 18:36 50.67049 13.11352 10306 ft 337 kts 40°
2026-05-08 18:37 50.68789 13.13768 10023 ft 327 kts 40°
2026-05-08 18:37 50.70454 13.16093 9883 ft 313 kts 40°
2026-05-08 18:37 50.72055 13.18321 9753 ft 301 kts 40°
2026-05-08 18:37 50.73598 13.20460 9536 ft 291 kts 40°
2026-05-08 18:38 50.75108 13.22561 9210 ft 287 kts 40°
2026-05-08 18:38 50.76602 13.24642 8817 ft 285 kts 40°
2026-05-08 18:38 50.78064 13.26680 8437 ft 284 kts 40°
2026-05-08 18:38 50.79537 13.28731 8011 ft 281 kts 40°
2026-05-08 18:39 50.81004 13.30770 7571 ft 280 kts 40°
2026-05-08 18:39 50.82463 13.32803 7211 ft 279 kts 40°
2026-05-08 18:39 50.83905 13.34834 6920 ft 274 kts 40°
2026-05-08 18:39 50.85278 13.36814 6767 ft 260 kts 41°
2026-05-08 18:40 50.86574 13.38707 6606 ft 248 kts 41°
2026-05-08 18:40 50.87827 13.40546 6258 ft 244 kts 41°
2026-05-08 18:40 50.89065 13.42360 5883 ft 241 kts 41°
2026-05-08 18:40 50.90272 13.44128 5512 ft 239 kts 41°
2026-05-08 18:41 50.91487 13.45906 5156 ft 236 kts 41°
2026-05-08 18:41 50.92685 13.47662 4851 ft 231 kts 41°
2026-05-08 18:41 50.93851 13.49371 4598 ft 226 kts 41°
2026-05-08 18:41 50.94994 13.51046 4356 ft 221 kts 41°
2026-05-08 18:42 50.96097 13.52667 4238 ft 212 kts 42°
2026-05-08 18:42 50.97157 13.54225 4131 ft 202 kts 42°
2026-05-08 18:42 50.98147 13.55701 4043 ft 191 kts 43°
2026-05-08 18:42 50.99098 13.57109 4009 ft 186 kts 41°
2026-05-08 18:43 51.00062 13.58461 3943 ft 183 kts 40°
2026-05-08 18:43 51.01003 13.59756 3765 ft 176 kts 40°
2026-05-08 18:43 51.01909 13.60996 3545 ft 173 kts 41°
2026-05-08 18:43 51.02815 13.62236 3319 ft 171 kts 41°
2026-05-08 18:44 51.03674 13.63410 3100 ft 153 kts 41°
2026-05-08 18:44 51.04433 13.64448 2895 ft 137 kts 41°
2026-05-08 18:44 51.05133 13.65406 2717 ft 130 kts 41°
2026-05-08 18:44 51.05813 13.66338 2542 ft 127 kts 42°
2026-05-08 18:45 51.06481 13.67252 2370 ft 127 kts 41°
2026-05-08 18:45 51.07137 13.68152 2199 ft 126 kts 41°
2026-05-08 18:45 51.07798 13.69057 2030 ft 125 kts 41°
2026-05-08 18:45 51.08455 13.69959 1859 ft 124 kts 42°
2026-05-08 18:46 51.09110 13.70856 1688 ft 124 kts 42°
2026-05-08 18:46 51.09762 13.71749 1507 ft 124 kts 41°
2026-05-08 18:46 51.10418 13.72650 1348 ft 125 kts 42°
2026-05-08 18:46 51.11085 13.73569 1190 ft 128 kts 41°
2026-05-08 18:47 51.11757 13.74489 1013 ft 126 kts 40°
2026-05-08 18:47 51.12432 13.75412 816 ft 128 kts 41°
2026-05-08 18:47 51.13039 13.76247 756 ft 103 kts 40°
2026-05-08 18:47 51.13457 13.76829 740 ft 58 kts 40°
2026-05-08 18:48 51.13738 13.77216 730 ft 46 kts 41°
2026-05-08 18:48 51.13899 13.77464 721 ft 19 kts 75°
2026-05-08 18:48 51.13836 13.77629 716 ft 19 kts 130°
2026-05-08 18:48 51.13751 13.77710 714 ft 12 kts 201°
2026-05-08 18:49 51.13693 13.77630 717 ft 10 kts 216°
2026-05-08 18:49 51.13639 13.77560 721 ft 11 kts 221°
2026-05-08 18:49 51.13576 13.77474 722 ft 13 kts 221°
2026-05-08 18:49 51.13488 13.77353 728 ft 20 kts 220°
2026-05-08 18:50 51.13378 13.77204 736 ft 20 kts 220°
2026-05-08 18:50 51.13284 13.77073 744 ft 17 kts 221°
2026-05-08 18:50 51.13184 13.76933 745 ft 21 kts 220°
2026-05-08 18:50 51.13076 13.76786 747 ft 20 kts 220°
2026-05-08 18:51 51.12970 13.76640 750 ft 22 kts 221°
2026-05-08 18:51 51.12862 13.76490 750 ft 15 kts 221°
2026-05-08 18:51 51.12794 13.76462 751 ft 11 kts 155°
2026-05-08 18:51 51.12738 13.76556 753 ft 13 kts 130°
2026-05-08 18:52 51.12687 13.76621 752 ft 9 kts 188°
2026-05-08 18:52 51.12641 13.76560 753 ft 7 kts 221°
2026-05-08 18:52 51.12626 13.76540 750 ft 0 kts 221°